User: anonymous   Login
Location: Unspecified
(47.7670°N, 8.8522°E)
Time: 09:04:36
(UTC+02:00)
Language:

ISS - Orbit

View from above orbital plane
View from above orbital plane
View from above satellite
View from above satellite

Ground track
Ground track

The orbit data is extracted from the following two-line orbital elements,

1 25544U 98067A   21210.10896019  .00002036  00000-0  45284-4 0  9998
2 25544  51.6433 135.4185 0001463 207.5894 260.5318 15.48868822295092
Epoch (UTC): 29 July 2021 02:36:54
Eccentricity: 0.0001463
inclination: 51.6433°
perigee height: 419 km
apogee height: 421 km
right ascension of ascending node: 135.4185°
argument of perigee: 207.5894°
revolutions per day: 15.48868822
mean anomaly at epoch: 260.5318°
orbit number at epoch: 29509

The dashed part of the orbit path shows where the satellite is in the earth's shadow,  

DLR